Muscatine, IA

2:51 AM CST on December 13, 2019 (GMT -0600)
Muscatine Municipal

Weather History for KMUT - October, 2019

Change the Weather History Date:

Monday, October 21, 2019

  Actual Average Record
Temperature  
Mean Temperature 54 °F -  
Max Temperature 60 °F 64 °F 84 °F (1979)
Min Temperature 48 °F 42 °F 21 °F (1952)
Degree Days  
Heating Degree Days 11    
Growing Degree Days 4 (Base 50)    
Moisture  
Dew Point 47 °F    
Average Humidity 74    
Maximum Humidity 100    
Minimum Humidity 48    
Precipitation  
Precipitation 0.00 in - - ()
Sea Level Pressure  
Sea Level Pressure 29.47 in    
Wind  
Wind Speed 14 mph ()    
Max Wind Speed 29 mph    
Max Gust Speed 41 mph    
Visibility 9.1 miles    
Events Rain    
Averages and records for this station are not official NWS values.
T = Trace of Precipitation, MM = Missing Value Source: Averaged Metar Reports

Daily Weather History Graph

Daily Weather History Graph

Search for Another Location

Airport or City:

Astronomy

Oct. 21, 2019 Rise Set
Actual Time 7:22 AM CDT 6:14 PM CDT
Civil Twilight 6:54 AM CDT 6:42 PM CDT
Nautical Twilight 6:22 AM CDT 7:15 PM CDT
Astronomical Twilight 5:50 AM CDT 7:47 PM CDT
Moon No Moon Rise 2:43 PM CDT (10/21)
Length of Visible Light 11h 48m
Length of Day
10h 51m
Waning Gibbous, 48% of the Moon is Illuminated
Oct 21
Waning Gibbous
Oct 27
New
Nov 4
First Quarter
Nov 12
Full
Nov 19
Last Quarter

Hourly Weather History & Observations

Time (CDT) Temp. Dew Point Humidity Pressure Visibility Wind Dir Wind Speed Gust Speed Precip Events Conditions
12:15 AM 55.4 °F 50.0 °F 82% 29.70 in 10.0 mi ESE 10.4 mph - N/A   Overcast
12:35 AM 55.4 °F 51.8 °F 88% 29.72 in 10.0 mi SE 6.9 mph - N/A   Mostly Cloudy
12:55 AM 57.2 °F 51.8 °F 82% 29.71 in 10.0 mi ESE 6.9 mph - N/A   Overcast
1:15 AM 55.4 °F 51.8 °F 88% 29.68 in 10.0 mi ESE 8.1 mph - N/A   Overcast
1:35 AM 55.4 °F 51.8 °F 88% 29.68 in 10.0 mi ESE 5.8 mph - N/A   Mostly Cloudy
1:55 AM 55.4 °F 51.8 °F 88% 29.67 in 10.0 mi ESE 10.4 mph - N/A   Scattered Clouds
2:15 AM 57.2 °F 51.8 °F 82% 29.65 in 10.0 mi SE 9.2 mph - N/A   Mostly Cloudy
2:35 AM 57.2 °F 51.8 °F 82% 29.63 in 10.0 mi ESE 9.2 mph 17.3 mph N/A   Overcast
2:55 AM 57.2 °F 51.8 °F 82% 29.61 in 10.0 mi SE 8.1 mph 16.1 mph N/A   Overcast
3:15 AM 59.0 °F 51.8 °F 77% 29.60 in 10.0 mi SE 9.2 mph - N/A   Overcast
3:35 AM 59.0 °F 51.8 °F 77% 29.58 in 10.0 mi SE 12.7 mph - N/A   Mostly Cloudy
3:55 AM 57.2 °F 51.8 °F 82% 29.56 in 10.0 mi ESE 12.7 mph - N/A   Overcast
4:15 AM 57.2 °F 51.8 °F 82% 29.53 in 10.0 mi ESE 8.1 mph - N/A   Overcast
4:35 AM 57.2 °F 51.8 °F 82% 29.52 in 9.0 mi ESE 11.5 mph 17.3 mph N/A   Overcast
4:55 AM 57.2 °F 53.6 °F 88% 29.55 in 0.8 mi SSE 11.5 mph 21.9 mph N/A Rain Light Rain
5:15 AM 57.2 °F 53.6 °F 88% 29.53 in 3.0 mi SSE 11.5 mph 17.3 mph N/A   Overcast
5:35 AM 57.2 °F 55.4 °F 94% 29.50 in 3.0 mi SSE 11.5 mph 18.4 mph N/A Rain Light Rain
5:55 AM 55.4 °F 55.4 °F 100% 29.44 in 3.0 mi ESE 15.0 mph - N/A Rain Light Rain
6:15 AM 55.4 °F 55.4 °F 100% 29.38 in 6.0 mi ESE 16.1 mph 28.8 mph N/A   Mist
6:35 AM 57.2 °F 55.4 °F 94% 29.35 in 10.0 mi ESE 16.1 mph 24.2 mph N/A   Mostly Cloudy
6:55 AM 57.2 °F 55.4 °F 94% 29.34 in 10.0 mi ESE 15.0 mph 21.9 mph N/A   Mostly Cloudy
7:15 AM 57.2 °F 55.4 °F 94% 29.35 in 10.0 mi SE 11.5 mph 17.3 mph N/A   Mostly Cloudy
7:35 AM 57.2 °F 55.4 °F 94% 29.36 in 10.0 mi SE 9.2 mph - N/A   Overcast
7:55 AM 57.2 °F 55.4 °F 94% 29.36 in 10.0 mi SE 12.7 mph - N/A   Overcast
8:15 AM 59.0 °F 55.4 °F 88% 29.34 in 8.0 mi SSE 13.8 mph 19.6 mph N/A   Overcast
8:35 AM 57.2 °F 57.2 °F 100% 29.35 in 1.5 mi SSE 15.0 mph 23.0 mph N/A Rain Light Rain
8:55 AM 59.0 °F 57.2 °F 94% 29.34 in 3.0 mi South 19.6 mph - N/A   Overcast
9:15 AM 59.0 °F 57.2 °F 94% 29.34 in 10.0 mi South 15.0 mph 23.0 mph N/A   Overcast
9:35 AM 59.0 °F 57.2 °F 94% 29.34 in 10.0 mi South 17.3 mph - N/A   Overcast
9:55 AM 60.8 °F 57.2 °F 88% 29.34 in 10.0 mi SSW 18.4 mph 27.6 mph N/A   Overcast
10:15 AM 59.0 °F 57.2 °F 94% 29.35 in 7.0 mi SW 13.8 mph 25.3 mph N/A   Overcast
10:35 AM 60.8 °F 55.4 °F 82% 29.35 in 10.0 mi SW 17.3 mph - N/A   Mostly Cloudy
10:55 AM 60.8 °F 50.0 °F 68% 29.36 in 10.0 mi SW 20.7 mph 29.9 mph N/A   Partly Cloudy
11:15 AM 60.8 °F 48.2 °F 63% 29.37 in 10.0 mi SW 20.7 mph - N/A   Clear
11:35 AM 60.8 °F 44.6 °F 55% 29.37 in 10.0 mi SW 21.9 mph 35.7 mph N/A   Clear
11:55 AM 60.8 °F 44.6 °F 55% 29.38 in 10.0 mi SW 17.3 mph 24.2 mph N/A   Clear
12:15 PM 60.8 °F 41.0 °F 48% 29.38 in 10.0 mi SW 26.5 mph 34.5 mph N/A   Clear
12:35 PM 60.8 °F 42.8 °F 52% 29.38 in 10.0 mi SW 18.4 mph 29.9 mph N/A   Clear
12:55 PM 60.8 °F 42.8 °F 52% 29.39 in 10.0 mi SW 26.5 mph 35.7 mph N/A   Partly Cloudy
1:15 PM 60.8 °F 42.8 °F 52% 29.39 in 10.0 mi SW 20.7 mph 29.9 mph N/A   Scattered Clouds
1:35 PM 60.8 °F 42.8 °F 52% 29.39 in 10.0 mi SSW 24.2 mph 33.4 mph N/A   Mostly Cloudy
1:55 PM 60.8 °F 42.8 °F 52% 29.39 in 10.0 mi SSW 20.7 mph 35.7 mph N/A   Mostly Cloudy
2:15 PM 60.8 °F 42.8 °F 52% 29.39 in 10.0 mi SW 21.9 mph 31.1 mph N/A   Mostly Cloudy
2:35 PM 60.8 °F 42.8 °F 52% 29.39 in 10.0 mi SSW 24.2 mph 38.0 mph N/A   Mostly Cloudy
2:55 PM 59.0 °F 41.0 °F 51% 29.41 in 10.0 mi SSW 25.3 mph 35.7 mph N/A   Overcast
3:15 PM 57.2 °F 41.0 °F 55% 29.42 in 10.0 mi SW 28.8 mph 38.0 mph N/A   Overcast
3:35 PM 55.4 °F 41.0 °F 58% 29.44 in 10.0 mi SW 26.5 mph 38.0 mph N/A   Overcast
3:55 PM 53.6 °F 39.2 °F 58% 29.46 in 10.0 mi SW 24.2 mph 41.4 mph N/A   Overcast
4:15 PM 53.6 °F 37.4 °F 54% 29.46 in 10.0 mi SW 21.9 mph 35.7 mph N/A   Overcast
4:35 PM 53.6 °F 39.2 °F 58% 29.46 in 10.0 mi SW 26.5 mph 34.5 mph N/A   Overcast
4:55 PM 53.6 °F 39.2 °F 58% 29.48 in 10.0 mi SW 21.9 mph 33.4 mph N/A   Overcast
5:15 PM 53.6 °F 39.2 °F 58% 29.48 in 10.0 mi SW 19.6 mph 25.3 mph N/A   Overcast
5:35 PM 53.6 °F 39.2 °F 58% 29.48 in 10.0 mi SW 19.6 mph 29.9 mph N/A   Overcast
5:55 PM 53.6 °F 39.2 °F 58% 29.49 in 10.0 mi SW 23.0 mph 29.9 mph N/A   Overcast
6:15 PM 53.6 °F 39.2 °F 58% 29.49 in 10.0 mi SW 21.9 mph - N/A   Overcast
6:35 PM 53.6 °F 39.2 °F 58% 29.50 in 10.0 mi SW 17.3 mph 26.5 mph N/A   Overcast
6:55 PM 53.6 °F 39.2 °F 58% 29.50 in 10.0 mi SW 19.6 mph 27.6 mph N/A   Overcast
7:15 PM 53.6 °F 41.0 °F 62% 29.50 in 10.0 mi SSW 20.7 mph - N/A   Overcast
7:35 PM 53.6 °F 41.0 °F 62% 29.51 in 10.0 mi SW 16.1 mph 25.3 mph N/A   Overcast
7:55 PM 51.8 °F 42.8 °F 71% 29.51 in 9.0 mi SW 20.7 mph 28.8 mph N/A   Overcast
8:15 PM 51.8 °F 42.8 °F 71% 29.51 in 10.0 mi SSW 16.1 mph 26.5 mph N/A   Overcast
8:35 PM 51.8 °F 42.8 °F 71% 29.50 in 10.0 mi SSW 17.3 mph 24.2 mph N/A   Overcast
8:55 PM 51.8 °F 42.8 °F 71% 29.50 in 10.0 mi SW 23.0 mph 31.1 mph N/A   Overcast
9:15 PM 51.8 °F 42.8 °F 71% 29.50 in 10.0 mi SW 18.4 mph 29.9 mph N/A   Overcast
9:35 PM 51.8 °F 42.8 °F 71% 29.50 in 10.0 mi SSW 20.7 mph 28.8 mph N/A   Overcast
9:55 PM 51.8 °F 42.8 °F 71% 29.50 in 10.0 mi SSW 18.4 mph 29.9 mph N/A   Overcast
10:15 PM 53.6 °F 42.8 °F 67% 29.50 in 10.0 mi SW 23.0 mph 31.1 mph N/A   Overcast
10:35 PM 53.6 °F 42.8 °F 67% 29.49 in 10.0 mi SW 27.6 mph 36.8 mph N/A   Overcast
10:55 PM 48.2 °F 44.6 °F 87% 29.51 in 4.0 mi WSW 24.2 mph 34.5 mph N/A Rain Light Rain
11:15 PM 48.2 °F 42.8 °F 82% 29.52 in 10.0 mi WSW 26.5 mph 33.4 mph N/A   Overcast
11:35 PM 50.0 °F 41.0 °F 71% 29.52 in 10.0 mi WSW 18.4 mph 27.6 mph N/A   Overcast
11:55 PM 50.0 °F 41.0 °F 71% 29.51 in 10.0 mi SW 18.4 mph 29.9 mph N/A   Overcast